Chicago DuPage, IL

4:36 PM CDT on April 20, 2018 (GMT -0500)
Du Page

Weather History for KDPA - November, 2013

Change the Weather History Date:

Tuesday, November 26, 2013

  Actual Average Record
Temperature  
Mean Temperature 24 °F 35 °F  
Max Temperature 33 °F 43 °F 62 °F (2006)
Min Temperature 14 °F 27 °F 9 °F (2014)
Degree Days  
Heating Degree Days 41 30  
Month to date heating degree days 719 616  
Since 1 July heating degree days 1282 1127  
Cooling Degree Days 0 0  
Month to date cooling degree days 0 0  
Year to date cooling degree days 745 814  
Moisture  
Dew Point 20 °F    
Average Humidity 74    
Maximum Humidity 86    
Minimum Humidity 56    
Precipitation  
Precipitation T in 0.11 in 0.72 in (2011)
Month to date precipitation 2.21 2.68  
Year to date precipitation 34.18 34.79  
Sea Level Pressure  
Sea Level Pressure 30.09 in    
Wind  
Wind Speed 11 mph (NW)    
Max Wind Speed 24 mph    
Max Gust Speed 31 mph    
Visibility 9 miles    
Events Snow    
T = Trace of Precipitation, MM = Missing Value Source: NWS Daily Summary

Daily Weather History Graph

Daily Weather History Graph

Search for Another Location

Airport or City:

Astronomy

Nov. 26, 2013 Rise Set
Actual Time 6:56 AM CST 4:24 PM CST
Civil Twilight 6:25 AM CST 4:55 PM CST
Nautical Twilight 5:50 AM CST 5:29 PM CST
Astronomical Twilight 5:17 AM CST 6:03 PM CST
Moon No Moon Rise 12:36 PM CST (11/26)
Length of Visible Light 10h 30m
Length of Day
9h 28m
Last Quarter, 41% of the Moon is Illuminated
Nov 26
Last Quarter
Dec 2
New
Dec 9
First Quarter
Dec 17
Full
Dec 25
Last Quarter

Hourly Weather History & Observations

Time (CST) Temp. Windchill Dew Point Humidity Pressure Visibility Wind Dir Wind Speed Gust Speed Precip Events Conditions
12:52 AM 28.9 °F 21.9 °F 24.1 °F 82% 30.08 in 10.0 mi SW 6.9 mph - N/A   Overcast
1:52 AM 30.0 °F 21.7 °F 25.0 °F 82% 30.09 in 10.0 mi SW 9.2 mph - N/A   Overcast
2:52 AM 30.0 °F 23.2 °F 25.0 °F 82% 30.09 in 10.0 mi SW 6.9 mph - N/A   Overcast
3:52 AM 28.9 °F 22.8 °F 25.0 °F 85% 30.09 in 10.0 mi SW 5.8 mph - N/A   Overcast
4:52 AM 28.9 °F 23.9 °F 25.0 °F 85% 30.08 in 10.0 mi SW 4.6 mph - N/A   Overcast
5:52 AM 28.9 °F 22.8 °F 25.0 °F 85% 30.07 in 10.0 mi SW 5.8 mph - N/A   Overcast
6:52 AM 28.9 °F 21.1 °F 25.0 °F 85% 30.09 in 10.0 mi WSW 8.1 mph - N/A   Overcast
7:52 AM 30.0 °F 24.1 °F 26.1 °F 85% 30.05 in 9.0 mi WSW 5.8 mph - N/A   Overcast
8:52 AM 30.0 °F 22.4 °F 26.1 °F 85% 30.07 in 9.0 mi SW 8.1 mph - N/A   Overcast
9:52 AM 32.0 °F 25.6 °F 26.1 °F 79% 30.06 in 10.0 mi West 6.9 mph - N/A   Overcast
10:52 AM 33.1 °F 25.5 °F 25.0 °F 72% 30.07 in 10.0 mi WNW 9.2 mph - N/A   Overcast
11:52 AM 33.1 °F 25.5 °F 26.1 °F 75% 30.04 in 10.0 mi NW 9.2 mph 19.6 mph N/A   Overcast
12:52 PM 33.1 °F 24.4 °F 25.0 °F 72% 30.04 in 10.0 mi NNW 11.5 mph - N/A   Overcast
1:52 PM 30.9 °F 20.7 °F 19.9 °F 64% 30.05 in 10.0 mi NW 13.8 mph - N/A   Overcast
2:07 PM 30.2 °F 19.8 °F 21.2 °F 69% 30.02 in 10.0 mi NW 13.8 mph - N/A   Overcast
2:52 PM 30.9 °F 20.7 °F 21.0 °F 67% 30.05 in 10.0 mi NNW 13.8 mph - N/A   Overcast
3:52 PM 30.0 °F 21.7 °F 19.9 °F 66% 30.07 in 10.0 mi North 9.2 mph - N/A   Overcast
4:52 PM 28.9 °F 19.8 °F 19.9 °F 69% 30.08 in 10.0 mi NW 10.4 mph - N/A   Overcast
5:22 PM 28.4 °F 16.2 °F 23.0 °F 80% 30.06 in 2.5 mi NW 17.3 mph 20.7 mph 0.00 in Snow Light Snow
5:32 PM 26.6 °F 13.4 °F 23.0 °F 86% 30.07 in 3.0 mi NW 18.4 mph - 0.00 in Snow Light Snow
5:52 PM 26.1 °F 12.3 °F 21.0 °F 81% 30.11 in 5.0 mi NNW 19.6 mph 25.3 mph 0.00 in Snow Light Snow
6:05 PM 26.6 °F 13.4 °F 19.4 °F 74% 30.08 in 7.0 mi NNW 18.4 mph 24.2 mph 0.00 in Snow Light Snow
6:27 PM 26.6 °F 13.8 °F 21.2 °F 80% 30.09 in 5.0 mi NNW 17.3 mph 24.2 mph 0.00 in Snow Light Snow
6:45 PM 24.8 °F 11.9 °F 19.4 °F 80% 30.09 in 6.0 mi North 16.1 mph 23.0 mph 0.00 in Snow Light Snow
6:52 PM 25.0 °F 10.2 °F 17.1 °F 72% 30.13 in 8.0 mi NNW 21.9 mph 27.6 mph 0.00 in Snow Light Snow
7:09 PM 24.8 °F 10.3 °F 14.0 °F 64% 30.10 in 10.0 mi NNW 20.7 mph 27.6 mph N/A   Overcast
7:52 PM 21.9 °F 7.8 °F 10.9 °F 63% 30.15 in 10.0 mi NNW 17.3 mph 25.3 mph N/A   Overcast
8:52 PM 19.0 °F 3.2 °F 6.1 °F 57% 30.17 in 10.0 mi North 19.6 mph 24.2 mph N/A   Overcast
9:52 PM 17.1 °F 1.5 °F 3.9 °F 56% 30.18 in 10.0 mi NNW 17.3 mph 24.2 mph N/A   Clear
10:52 PM 15.1 °F 0.5 °F 3.9 °F 61% 30.19 in 10.0 mi NNW 13.8 mph - N/A   Clear
11:52 PM 15.1 °F 1.1 °F 3.9 °F 61% 30.18 in 10.0 mi NNW 12.7 mph - N/A   Clear